| time (UTC) | temp F | wind direction | speed MPH | gust MPH | rain 1hr in | rain 24hr in | rain mn in | humidity % | barometer mb |
| 20260509221541 | 63 | 169 | 0.0 | 0.0 | 0.00 | 0.06 | 0.06 | 47 | 1015.0 |
| 20260509220030 | 62 | 121 | 0.0 | 0.0 | 0.00 | 0.06 | 0.06 | 53 | 1015.1 |
| 20260509214528 | 60 | 47 | 0.0 | 7.0 | 0.00 | 0.06 | 0.06 | 57 | 1015.2 |
| 20260509213027 | 62 | 231 | 0.0 | 6.0 | 0.00 | 0.06 | 0.06 | 55 | 1015.1 |
| 20260509211527 | 61 | 25 | 2.0 | 13.0 | 0.00 | 0.06 | 0.06 | 57 | 1015.0 |
| 20260509210106 | 62 | 309 | 3.0 | 15.0 | 0.00 | 0.06 | 0.06 | 51 | 1014.9 |
| 20260509204555 | 63 | 120 | 0.0 | 4.0 | 0.00 | 0.06 | 0.06 | 52 | 1014.7 |
| 20260509203025 | 63 | 15 | 2.0 | 7.0 | 0.00 | 0.06 | 0.06 | 56 | 1014.6 |
| 20260509201526 | 63 | 29 | 0.0 | 0.0 | 0.00 | 0.06 | 0.06 | 58 | 1014.5 |
| 20260509200015 | 61 | 281 | 0.0 | 6.0 | 0.00 | 0.06 | 0.06 | 64 | 1014.5 |
| 20260509194514 | 60 | 262 | 2.0 | 8.0 | 0.00 | 0.06 | 0.06 | 66 | 1014.6 |
| 20260509193012 | 60 | 8 | 0.0 | 10.0 | 0.00 | 0.06 | 0.06 | 69 | 1014.8 |
| 20260509191509 | 58 | 135 | 0.0 | 2.0 | 0.02 | 0.06 | 0.06 | 72 | 1014.9 |
| 20260509190006 | 57 | 53 | 0.0 | 7.0 | 0.02 | 0.06 | 0.06 | 77 | 1014.9 |
| 20260509184511 | 56 | 120 | 0.0 | 2.0 | 0.02 | 0.06 | 0.06 | 77 | 1014.9 |
| 20260509183003 | 55 | 268 | 0.0 | 0.0 | 0.02 | 0.06 | 0.06 | 82 | 1014.8 |
| 20260509181502 | 56 | 143 | 0.0 | 10.0 | 0.00 | 0.04 | 0.04 | 76 | 1014.9 |
| 20260509180058 | 57 | 325 | 0.0 | 0.0 | 0.00 | 0.04 | 0.04 | 73 | 1014.8 |
| 20260509174600 | 56 | 240 | 0.0 | 0.0 | 0.00 | 0.04 | 0.04 | 75 | 1014.7 |
| 20260509173118 | 55 | 289 | 0.0 | 0.0 | 0.01 | 0.04 | 0.04 | 79 | 1014.6 |
| 20260509171554 | 54 | 224 | 0.0 | 0.0 | 0.01 | 0.04 | 0.04 | 81 | 1014.5 |
| 20260509170057 | 54 | 105 | 2.0 | 8.0 | 0.01 | 0.04 | 0.04 | 81 | 1014.5 |
| 20260509164558 | 54 | 50 | 0.0 | 0.0 | 0.02 | 0.04 | 0.04 | 83 | 1014.4 |
| 20260509163051 | 54 | 172 | 0.0 | 0.0 | 0.01 | 0.03 | 0.03 | 84 | 1014.4 |
| 20260509161548 | 52 | 202 | 0.0 | 0.0 | 0.01 | 0.03 | 0.03 | 86 | 1014.4 |
| 20260509160047 | 52 | 63 | 0.0 | 0.0 | 0.02 | 0.03 | 0.03 | 87 | 1014.3 |
| 20260509154543 | 52 | 345 | 0.0 | 0.0 | 0.01 | 0.02 | 0.02 | 87 | 1014.3 |
| 20260509153042 | 52 | 0.0 | 0.0 | 0.01 | 0.02 | 0.02 | 87 | 1014.1 | |
| 20260509151553 | 51 | 319 | 0.0 | 0.0 | 0.01 | 0.02 | 0.02 | 87 | 1014.0 |
| 20260509150044 | 51 | 0.0 | 0.0 | 0.01 | 0.01 | 0.01 | 86 | 1014.0 | |
| 20260509144534 | 51 | 311 | 0.0 | 0.0 | 0.01 | 0.01 | 0.01 | 84 | 1013.8 |
| 20260509143032 | 51 | 87 | 0.0 | 0.0 | 0.01 | 0.01 | 0.01 | 83 | 1013.6 |
| 20260509141530 | 50 | 315 | 0.0 | 0.0 | 0.01 | 0.01 | 0.01 | 83 | 1013.5 |
| 20260509134557 | 0 | 0.0 | 0.0 | 0.00 | 0.00 | 0.00 | 1013.2 | ||
| 20260509133049 | 0 | 0.0 | 0.0 | 0.00 | 0.00 | 0.00 | 1013.1 | ||
| 20260509131557 | 0 | 0.0 | 0.0 | 0.00 | 0.00 | 0.00 | 1013.0 | ||
| 20260509124540 | 0 | 0.0 | 0.0 | 0.00 | 0.00 | 0.00 | 1012.3 | ||
| 20260509123051 | 51 | 190 | 0.0 | 1.0 | 0.00 | 0.00 | 0.00 | 66 | 1012.1 |
| 20260509121529 | 51 | 0.0 | 1.0 | 0.00 | 0.00 | 0.00 | 69 | 1011.8 | |
| 20260509120031 | 51 | 62 | 0.0 | 0.0 | 0.00 | 0.00 | 0.00 | 69 | 1011.6 |
| 20260509114524 | 51 | 268 | 0.0 | 0.0 | 0.00 | 0.00 | 0.00 | 69 | 1011.5 |
| 20260509113020 | 51 | 345 | 0.0 | 0.0 | 0.00 | 0.00 | 0.00 | 67 | 1011.2 |
| 20260509111516 | 52 | 304 | 0.0 | 0.0 | 0.00 | 0.00 | 0.00 | 67 | 1011.0 |
| 20260509110015 | 52 | 259 | 0.0 | 0.0 | 0.00 | 0.00 | 0.00 | 65 | 1010.7 |
| 20260509104514 | 52 | 307 | 0.0 | 0.0 | 0.00 | 0.00 | 0.00 | 64 | 1010.7 |
| 20260509103009 | 52 | 157 | 0.0 | 0.0 | 0.00 | 0.00 | 0.00 | 66 | 1010.5 |
| 20260509101511 | 52 | 288 | 0.0 | 0.0 | 0.00 | 0.00 | 0.00 | 64 | 1010.5 |
| 20260509100006 | 53 | 0.0 | 0.0 | 0.00 | 0.00 | 0.00 | 64 | 1010.5 | |
| 20260509094501 | 53 | 36 | 0.0 | 0.0 | 0.00 | 0.00 | 0.00 | 62 | 1010.0 |
| 20260509093059 | 54 | 151 | 0.0 | 4.0 | 0.00 | 0.00 | 0.00 | 60 | 1009.7 |
| 20260509091555 | 54 | 49 | 0.0 | 1.0 | 0.00 | 0.00 | 0.00 | 59 | 1009.2 |
| 20260509090051 | 55 | 313 | 0.0 | 0.0 | 0.00 | 0.00 | 0.00 | 58 | 1009.1 |
| 20260509084552 | 55 | 309 | 0.0 | 0.0 | 0.00 | 0.00 | 0.00 | 56 | 1008.6 |
| 20260509083045 | 55 | 0.0 | 0.0 | 0.00 | 0.00 | 0.00 | 56 | 1008.5 | |
| 20260509081542 | 55 | 166 | 1.0 | 8.0 | 0.00 | 0.00 | 0.00 | 56 | 1008.4 |
| 20260509080044 | 55 | 82 | 0.0 | 15.0 | 0.00 | 0.00 | 0.00 | 54 | 1008.1 |
| 20260509074538 | 56 | 103 | 0.0 | 0.0 | 0.00 | 0.00 | 0.00 | 50 | 1007.9 |
| 20260509073035 | 56 | 322 | 0.0 | 0.0 | 0.00 | 0.00 | 0.00 | 51 | 1007.7 |
| 20260509071529 | 57 | 61 | 0.0 | 0.0 | 0.00 | 0.00 | 0.00 | 51 | 1007.5 |
| 20260509070028 | 56 | 93 | 0.0 | 0.0 | 0.00 | 0.00 | 0.00 | 50 | 1007.3 |
| 20260509064526 | 57 | 236 | 0.0 | 0.0 | 0.00 | 0.00 | 0.00 | 47 | 1007.0 |
| 20260509063032 | 58 | 251 | 0.0 | 0.0 | 0.00 | 0.00 | 0.00 | 43 | 1006.8 |
| 20260509061520 | 60 | 123 | 0.0 | 16.0 | 0.00 | 0.00 | 0.00 | 39 | 1006.5 |
| 20260509060014 | 59 | 37 | 8.0 | 14.0 | 0.00 | 0.00 | 0.00 | 38 | 1006.3 |
| 20260509054511 | 59 | 229 | 0.0 | 2.0 | 0.00 | 0.00 | 0.00 | 38 | 1006.1 |
| 20260509053013 | 60 | 6 | 0.0 | 4.0 | 0.00 | 0.00 | 0.00 | 37 | 1005.9 |
| 20260509051507 | 60 | 55 | 0.0 | 2.0 | 0.00 | 0.00 | 0.00 | 37 | 1005.8 |
| 20260509050006 | 60 | 351 | 0.0 | 0.0 | 0.00 | 0.00 | 0.00 | 38 | 1005.6 |
| 20260509044501 | 60 | 176 | 0.0 | 2.0 | 0.00 | 0.00 | 0.00 | 37 | 1005.5 |
| 20260509043058 | 59 | 340 | 0.0 | 0.0 | 0.00 | 0.00 | 0.00 | 41 | 1005.5 |
| 20260509041552 | 57 | 191 | 0.0 | 0.0 | 0.00 | 0.00 | 0.00 | 47 | 1005.3 |
| 20260509040049 | 56 | 0.0 | 0.0 | 0.00 | 0.00 | 0.00 | 50 | 1005.2 | |
| 20260509034547 | 57 | 1 | 0.0 | 0.0 | 0.00 | 0.00 | 0.00 | 53 | 1005.0 |
| 20260509033044 | 58 | 113 | 0.0 | 0.0 | 0.00 | 0.00 | 0.00 | 51 | 1004.9 |
| 20260509031553 | 58 | 319 | 0.0 | 0.0 | 0.00 | 0.00 | 0.00 | 51 | 1004.8 |
| 20260509030040 | 59 | 358 | 0.0 | 0.0 | 0.00 | 0.00 | 0.00 | 50 | 1004.7 |
| 20260509024539 | 61 | 214 | 0.0 | 0.0 | 0.00 | 0.00 | 0.00 | 49 | 1004.6 |
| 20260509023038 | 62 | 101 | 0.0 | 0.0 | 0.00 | 0.00 | 0.00 | 47 | 1004.4 |
| 20260509021508 | 64 | 148 | 0.0 | 0.0 | 0.00 | 0.00 | 0.00 | 44 | 1004.3 |
| 20260509020010 | 66 | 117 | 0.0 | 0.0 | 0.00 | 0.00 | 0.00 | 38 | 1004.3 |
| 20260509014514 | 68 | 236 | 0.0 | 0.0 | 0.00 | 0.00 | 0.00 | 35 | 1004.3 |
| 20260509013005 | 70 | 151 | 0.0 | 0.0 | 0.00 | 0.00 | 0.00 | 34 | 1004.3 |
| 20260509011504 | 71 | 232 | 0.0 | 1.0 | 0.00 | 0.00 | 0.00 | 31 | 1004.3 |
| 20260509010002 | 72 | 190 | 0.0 | 0.0 | 0.00 | 0.00 | 0.00 | 29 | 1004.3 |
| 20260509004533 | 73 | 60 | 0.0 | 1.0 | 0.00 | 0.00 | 0.00 | 29 | 1004.4 |
| 20260509003031 | 74 | 165 | 0.0 | 14.0 | 0.00 | 0.00 | 0.00 | 26 | 1004.5 |
| 20260509001531 | 74 | 205 | 0.0 | 9.0 | 0.00 | 0.00 | 0.00 | 29 | 1004.5 |
| 20260509000026 | 75 | 201 | 0.0 | 3.0 | 0.00 | 0.00 | 0.00 | 28 | 1004.6 |
| 20260508234524 | 75 | 51 | 0.0 | 7.0 | 0.00 | 0.00 | 0.00 | 26 | 1004.6 |
| 20260508233022 | 75 | 263 | 2.0 | 21.0 | 0.00 | 0.00 | 0.00 | 26 | 1004.8 |
| 20260508231516 | 75 | 4 | 1.0 | 10.0 | 0.00 | 0.00 | 0.00 | 28 | 1005.0 |
| 20260508230014 | 75 | 258 | 0.0 | 15.0 | 0.00 | 0.00 | 0.00 | 28 | 1005.0 |
| 20260508224510 | 74 | 124 | 2.0 | 13.0 | 0.00 | 0.00 | 0.00 | 29 | 1005.3 |
| 20260508223010 | 74 | 325 | 5.0 | 16.0 | 0.00 | 0.00 | 0.00 | 30 | 1005.5 |